Regional Weather Roundup
Issued by NWS

Home | Current Version | Previous Version | Graphics & Text | Print | Product List | Glossary Off
Versions: 1 2 3 4 5 6 7 8 9 10 11 12 13 14 15 16 17 18 19 20 21 22 23 24 25 26 27 28 29 30 31 32 33 34 35 36 37 38 39 40 41 42 43 44 45 46 47 48 49 50

000
ASUS43 KBIS 152210
RWRND

NORTH DAKOTA REGIONAL WEATHER ROUNDUP
NATIONAL WEATHER SERVICE BISMARCK ND
400 PM CST FRI DEC 15 2017

NOTE: "FAIR" INDICATES FEW OR NO CLOUDS BELOW 12,000 FEET WITH NO
SIGNIFICANT WEATHER AND/OR OBSTRUCTIONS TO VISIBILITY.


NDZ001>003-009>011-017-152300-
NORTHWEST NORTH DAKOTA

CITY           SKY/WX    TMP DP  RH WIND       PRES   REMARKS
WILLISTON        N/A    N/A N/A N/A MISG      29.54F
MINOT          CLOUDY    41  26  55 SW6       29.49F
MINOT AFB      CLOUDY    38  26  61 W5        29.48F
$$

NDZ018>021-031>035-040>046-152300-
SOUTHWEST NORTH DAKOTA

CITY           SKY/WX    TMP DP  RH WIND       PRES   REMARKS
BISMARCK       CLOUDY    44  25  47 CALM      29.55F
DICKINSON      CLOUDY    45  23  42 W16       29.55F
GARRISON         N/A     39  24  55 W6        29.52F
HETTINGER ARPT CLOUDY    45  20  36 W17       29.60F
$$

NDZ004>008-012>016-024-026-027-054-152300-
NORTHEAST NORTH DAKOTA

CITY           SKY/WX    TMP DP  RH WIND       PRES   REMARKS
GRAND FORKS    LGT SNOW  22  20  92 S12       29.67S FOG     WCI  10
GRND FRKS AFB  LGT SNOW  23  19  86 S12       29.64F FOG     WCI  12
DEVILS LAKE    LGT SNOW  28  28 100 SE8       29.57S FOG
$$

NDZ022-023-025-028>030-036>039-047>053-152300-
SOUTHEAST NORTH DAKOTA

CITY           SKY/WX    TMP DP  RH WIND       PRES   REMARKS
FARGO          CLOUDY    28  24  85 SE12      29.66F WCI  18
JAMESTOWN      CLOUDY    32  31  96 S10       29.56F
$$




USA.gov is the U.S. government's official web portal to all federal, state and local government web resources and services.